Theta_e
282 282 282 282 282 282 282 281 281 281 281 281 281 282 283 284 284 284 285 286 286 286 286 285 285 285 286 286 285 286 286 287 288 288 288 289 289 290 290 290 290 290 290 290 291 293 294 295 296 297 298 299 299 299 299 299 300 301 302 303 302 301 301 303 305 307 310 312 314 315 318 321 320 320 319 321 321 321 319 320 320 322 324 324 324
282 281 281 280 280 281 280 280 283 280 281 281 281 282 282 283 283 284 284 285 285 285 285 285 285 285 285 284 284 284 285 285 285 286 287 288 288 289 289 288 288 288 289 289 289 289 291 293 295 296 297 298 299 299 299 299 300 300 301 301 302 301 300 302 304 305 303 307 309 309 312 313 314 317 317 316 318 319 318 319 320 322 322 323 324
279 280 281 279 280 280 279 279 279 280 280 280 281 282 282 282 283 283 284 284 285 285 285 284 285 285 284 284 284 284 285 285 285 285 286 286 286 287 287 287 288 287 288 288 288 288 288 289 292 295 297 298 298 298 298 298 298 298 299 299 299 301 300 302 302 304 301 305 310 308 304 304 305 308 311 313 314 317 318 318 318 320 321 322 323
279 279 279 278 278 278 278 278 279 279 280 280 281 281 282 283 282 282 283 283 284 285 286 285 285 285 284 284 284 284 283 285 284 284 285 284 284 285 286 286 287 287 287 287 287 287 287 287 289 293 296 297 298 297 297 297 297 297 298 299 300 297 298 298 301 302 302 303 302 305 306 306 303 305 308 309 311 315 317 317 319 320 321 321 322
278 279 278 278 277 277 278 279 278 279 279 279 281 281 283 281 282 282 282 283 283 285 284 284 284 283 283 283 283 283 283 282 282 282 282 283 283 283 284 285 285 285 285 286 286 286 286 286 287 291 295 296 297 297 297 297 296 297 298 298 299 298 297 298 299 301 300 301 301 305 303 303 305 307 309 303 305 311 314 316 316 319 321 320 321
278 278 279 278 277 277 277 278 278 278 279 280 280 281 281 281 281 282 282 282 282 283 283 283 282 281 281 280 279 279 279 279 279 279 280 280 280 282 282 283 283 283 284 284 285 286 285 286 287 290 293 295 296 297 297 296 296 296 297 298 299 300 299 298 297 299 300 299 300 302 309 305 306 308 308 301 300 305 312 314 316 318 320 319 320
278 278 277 277 277 277 277 277 277 278 279 280 280 281 281 281 281 281 281 282 283 282 282 283 281 281 280 280 279 279 278 279 280 280 280 280 281 280 281 282 282 282 282 284 285 285 286 286 287 290 293 294 295 295 295 295 295 296 298 298 300 300 301 298 298 297 299 299 299 301 301 308 311 308 304 302 298 300 309 311 313 316 318 319 319
277 277 277 277 277 277 277 278 277 278 279 279 280 281 280 280 280 280 281 282 281 281 281 282 280 280 280 279 280 279 278 278 279 279 280 281 280 280 280 280 281 282 283 284 285 285 286 287 289 291 292 293 293 294 294 295 296 298 298 299 301 301 301 299 298 298 295 294 298 297 298 301 310 312 311 306 304 300 303 309 312 315 317 318 318
277 276 276 276 277 277 277 277 278 278 279 279 280 280 280 280 281 280 280 280 280 280 281 280 281 280 279 279 278 279 279 279 279 280 279 279 278 278 279 279 280 282 283 282 282 283 285 285 287 290 292 293 293 294 295 296 296 297 297 299 299 299 300 299 298 297 297 296 296 296 297 298 305 311 311 311 306 303 303 304 306 309 314 316 317
276 276 276 276 276 277 277 277 277 278 279 280 280 280 280 279 280 280 279 279 280 279 279 279 279 280 278 278 278 277 278 278 278 277 277 278 277 277 278 278 279 280 280 281 282 282 283 283 284 287 288 289 291 293 295 295 296 296 297 299 299 299 300 299 298 298 297 297 297 296 294 294 296 305 309 309 308 309 303 305 307 306 306 310 316
276 276 276 276 276 276 277 276 277 278 278 279 279 279 279 279 279 278 278 279 279 278 279 278 278 278 278 278 277 277 277 277 276 276 276 276 276 276 277 277 278 278 279 280 281 281 281 282 283 284 286 287 289 292 293 294 295 296 297 297 296 297 297 298 297 297 297 297 296 296 295 295 294 296 307 308 308 306 305 306 307 308 310 309 312
276 275 276 276 276 276 276 276 276 277 278 278 278 278 279 278 278 278 278 278 278 278 278 278 278 278 278 277 277 277 277 276 275 275 275 275 275 275 276 276 277 278 278 279 280 281 281 281 282 283 284 286 287 289 291 293 295 296 296 296 296 297 298 297 297 296 296 296 296 297 296 297 297 296 301 310 309 309 308 307 307 308 309 308 310
275 275 275 275 275 275 275 276 276 276 277 277 278 278 278 278 278 277 278 278 278 277 277 277 277 277 277 277 277 277 277 276 275 275 276 275 275 275 275 275 276 276 276 277 279 280 280 279 280 281 283 285 286 287 288 290 293 295 295 296 297 297 297 297 295 295 295 294 294 296 296 296 296 299 299 307 311 311 310 307 308 309 305 299 299
275 275 274 274 275 275 275 275 276 276 277 277 277 278 277 278 277 277 277 278 277 277 277 277 277 277 277 277 276 276 275 276 275 275 276 276 276 275 275 275 275 275 276 276 278 279 279 279 280 281 283 285 285 285 286 288 292 294 294 296 296 297 296 296 295 295 295 295 295 294 295 295 297 298 298 305 311 310 308 308 306 304 305 300 296
274 274 274 275 275 275 275 275 276 276 276 276 276 276 277 277 277 277 277 277 277 277 277 277 277 277 276 276 276 276 275 275 275 276 276 275 275 275 275 276 275 275 275 276 277 278 279 279 279 279 281 284 284 284 286 288 291 293 294 296 296 295 295 295 295 295 294 294 294 295 294 295 296 297 298 303 313 312 310 309 307 301 298 299 300
274 274 274 274 274 274 275 275 276 275 276 276 276 276 276 276 276 276 276 277 277 277 277 277 276 276 276 276 276 276 276 276 276 276 275 275 275 275 275 275 275 275 275 276 276 277 278 278 278 278 280 282 283 284 285 287 289 291 293 294 293 295 295 294 295 296 295 295 295 295 295 295 297 297 298 302 313 313 312 311 309 305 300 295 299
274 274 274 274 274 275 275 275 275 275 276 275 276 276 276 276 276 276 276 276 276 277 276 276 276 275 275 275 275 275 274 274 274 274 274 275 275 275 275 275 275 275 275 276 275 276 276 277 277 278 279 280 282 284 285 285 287 289 291 293 291 294 293 293 295 295 296 296 296 295 295 295 296 297 298 302 312 312 313 313 311 308 306 300 297
274 274 274 274 275 275 275 275 275 275 275 275 275 276 276 276 275 275 276 275 276 276 275 275 275 275 275 275 275 274 274 274 274 274 274 274 274 275 275 275 275 275 275 275 275 275 276 277 277 278 279 279 282 283 283 283 284 286 289 291 292 293 293 293 293 295 295 296 295 296 295 295 296 296 298 301 310 312 312 313 311 310 309 304 302
273 273 274 275 275 275 275 275 275 275 275 275 275 276 275 275 275 275 275 275 275 276 275 275 275 275 275 274 274 274 274 274 274 274 274 274 274 274 274 275 275 275 275 274 274 275 275 276 276 277 277 279 280 281 281 282 282 283 285 288 291 292 292 292 293 294 295 295 295 295 296 295 295 296 297 301 308 310 313 312 312 312 310 308 306
274 274 275 275 275 274 274 274 274 274 274 275 275 275 275 275 275 275 276 275 275 274 274 274 274 274 274 274 274 274 274 274 274 274 274 274 274 274 274 274 274 275 274 274 274 274 274 274 275 275 276 278 279 279 279 280 281 281 283 286 289 291 291 292 292 294 295 295 295 295 295 295 295 295 296 300 308 308 311 312 312 311 311 310 309
274 275 275 274 274 274 274 274 274 274 275 275 274 274 274 274 274 274 274 274 274 274 273 273 273 273 273 273 273 273 273 274 274 274 274 274 274 275 274 274 274 274 274 273 273 273 273 274 274 275 275 276 277 277 278 279 280 281 282 285 287 290 290 291 292 292 294 295 295 295 295 295 295 295 295 298 306 308 309 311 312 312 310 310 309
274 274 274 274 274 274 274 274 274 274 274 273 274 274 274 274 274 274 274 273 273 273 273 272 273 273 272 272 272 273 273 273 273 273 273 274 274 274 274 274 273 273 273 273 273 273 273 273 273 274 274 275 275 275 276 278 279 280 281 283 285 288 290 291 291 291 293 294 295 295 295 296 296 295 295 296 304 307 308 309 310 311 310 310 310
274 274 274 274 274 274 274 274 273 273 273 273 273 273 273 273 273 273 272 272 272 272 272 272 272 272 272 272 272 272 272 272 272 273 273 273 273 273 274 273 272 272 272 272 272 272 272 273 273 273 273 273 273 274 276 277 278 278 279 280 282 285 288 290 290 290 291 292 293 294 296 297 297 296 296 297 302 306 308 308 309 310 309 309 308
274 274 274 274 273 273 273 273 273 273 272 272 272 272 272 272 272 272 272 272 272 272 272 271 271 271 271 271 271 272 272 272 272 272 272 273 273 273 273 272 272 272 271 271 272 272 272 272 272 272 272 271 272 273 274 275 276 277 278 279 281 283 287 289 290 290 290 291 291 292 294 296 297 297 296 297 302 306 308 308 308 308 308 307 306
273 273 274 273 273 272 273 272 272 272 272 272 272 272 271 271 271 271 271 271 271 271 271 271 270 270 270 270 270 271 271 271 271 272 272 272 272 272 272 272 271 271 270 270 270 271 271 271 271 270 271 271 271 272 272 273 274 277 278 279 280 282 285 288 290 290 290 290 291 291 293 295 297 297 297 297 301 305 306 307 307 307 307 306 305
273 273 273 273 273 273 272 272 272 272 271 271 271 271 271 271 271 271 270 270 271 271 270 270 269 269 269 269 269 270 270 270 270 271 271 272 271 271 271 271 271 270 270 270 269 270 270 270 270 270 270 270 271 271 271 272 273 274 276 277 278 281 285 288 289 290 290 290 290 291 293 296 297 297 297 298 302 304 306 306 306 306 304 303 302
273 273 273 272 272 272 272 271 271 271 271 270 270 270 269 269 269 270 270 270 269 269 269 268 268 268 267 268 268 269 269 269 270 270 271 271 271 270 270 269 270 269 268 268 269 269 269 269 269 270 270 270 270 270 271 272 272 273 274 276 278 280 284 287 289 290 290 291 291 292 293 294 296 297 298 298 301 303 305 305 306 305 303 302 300
273 273 272 272 272 272 271 271 271 270 270 270 269 269 269 269 268 269 269 269 269 268 268 267 267 267 267 267 268 268 268 269 269 270 270 270 270 269 269 268 268 268 268 267 267 268 268 269 269 269 270 270 270 270 271 271 272 273 274 276 278 279 282 285 288 289 290 290 290 290 291 293 295 297 298 299 302 305 305 304 307 305 303 302 300
272 272 272 272 271 271 270 270 270 270 269 268 268 268 268 268 268 268 268 268 268 267 267 266 266 266 266 267 267 268 268 268 269 269 269 268 268 267 267 266 266 266 267 267 267 267 267 267 268 268 269 269 269 269 270 271 272 273 275 276 278 279 282 284 287 288 289 289 289 290 290 291 292 291 291 292 296 302 306 302 304 304 302 301 299
273 272 272 271 271 270 270 270 269 268 267 267 267 267 267 267 267 267 267 267 267 266 266 265 265 265 266 266 267 267 267 268 268 267 267 266 266 266 265 265 265 265 266 266 266 267 267 267 267 267 268 269 269 270 272 275 276 274 275 276 278 279 282 284 287 288 288 288 288 289 289 289 289 289 290 291 293 296 301 305 305 303 300 300 298
273 272 271 271 270 270 269 269 268 267 267 266 267 267 267 267 267 267 266 267 266 265 265 265 265 265 266 266 266 266 267 266 266 266 266 265 265 264 264 264 264 265 265 266 266 266 267 267 267 267 267 268 269 270 274 276 278 279 278 278 279 280 282 284 286 288 287 287 287 288 289 289 289 289 290 292 294 295 299 301 301 301 301 301 298
272 271 270 270 270 269 269 268 267 267 266 266 266 266 266 266 266 266 266 266 265 265 264 264 265 265 265 265 265 266 265 265 264 264 264 263 263 263 263 263 264 264 265 266 266 266 266 267 267 267 267 268 268 272 274 275 277 279 280 279 280 281 282 283 285 287 288 287 287 287 288 289 290 291 291 293 294 294 297 300 300 299 299 299 300
271 270 270 270 269 269 268 267 266 266 266 266 266 265 265 265 265 265 265 264 264 264 264 264 264 264 265 265 265 265 264 263 263 263 263 262 262 262 262 262 263 264 265 265 266 266 266 267 267 267 267 268 268 272 274 275 276 278 280 280 279 280 281 282 284 285 286 287 287 286 287 289 290 289 289 292 295 296 296 298 298 298 298 299 299
271 270 269 269 269 268 268 267 266 266 266 266 266 265 265 265 265 265 264 264 263 263 264 263 264 264 264 264 264 263 262 261 261 261 261 261 261 261 261 262 263 264 265 265 266 266 266 266 267 267 267 268 268 271 274 275 276 277 279 280 279 280 281 281 282 284 286 287 287 287 286 287 288 289 290 292 295 298 299 300 300 300 300 298 298
270 269 270 269 268 267 267 266 266 266 266 265 264 265 265 264 264 263 263 263 263 263 263 263 264 264 263 263 262 261 261 260 260 260 260 260 260 261 261 262 263 264 264 265 265 265 266 266 267 267 268 268 269 273 275 276 277 279 280 281 279 280 281 281 282 283 285 287 288 288 287 287 288 288 289 291 293 297 298 297 298 298 300 300 301
271 270 269 268 267 267 266 266 266 265 264 264 264 264 263 263 263 263 262 263 263 262 263 263 263 263 262 262 261 260 260 259 259 259 259 259 260 260 260 262 263 264 265 266 266 267 266 266 267 267 268 268 269 274 275 276 277 279 281 280 280 281 281 281 282 283 285 287 288 288 287 287 288 288 289 291 292 295 296 295 295 297 299 301 302
271 270 268 268 267 266 266 265 264 264 264 263 264 263 262 262 262 262 262 262 262 262 262 262 261 261 261 261 260 259 258 258 258 258 258 259 260 260 261 263 263 264 265 266 266 266 267 267 267 268 268 269 269 273 275 276 277 279 280 279 280 281 281 282 282 283 284 286 288 288 288 288 288 288 289 291 293 294 295 294 295 296 297 298 300
269 268 268 267 267 266 266 265 263 263 264 264 263 262 261 261 261 261 261 261 261 261 261 261 260 260 260 260 259 258 258 258 258 258 258 259 260 262 262 264 264 265 265 266 267 267 268 268 268 268 269 269 269 272 275 276 278 279 280 279 280 281 281 282 282 283 285 286 287 288 288 288 288 288 290 292 293 293 295 294 295 295 295 296 298
268 267 266 266 265 265 264 264 263 262 263 263 262 261 261 260 260 261 261 260 260 260 260 260 259 259 259 258 258 257 257 257 257 258 259 259 261 262 263 265 265 265 266 267 267 267 268 269 269 269 272 271 270 271 275 276 278 279 279 280 280 281 281 282 283 283 285 286 287 287 288 288 288 289 291 292 293 294 295 295 296 296 295 295 298
267 266 266 265 265 264 263 263 262 262 263 262 261 261 260 260 260 260 259 259 259 259 259 259 259 258 258 257 257 257 257 257 257 258 259 261 263 263 263 263 264 265 265 266 267 268 268 269 270 270 270 271 270 271 272 276 277 279 281 280 281 281 280 281 283 283 284 285 286 286 287 289 290 290 291 291 292 294 295 295 296 296 296 296 298
267 267 267 264 264 263 263 262 263 263 262 261 261 260 259 259 259 259 258 259 259 259 259 258 257 257 256 256 257 257 257 258 259 259 261 262 262 262 262 263 263 264 264 265 265 266 268 269 271 272 271 271 271 271 272 277 278 280 281 282 280 280 281 282 283 283 284 284 285 286 287 289 290 291 291 291 292 294 295 295 297 297 297 297 296
267 267 264 263 263 262 262 262 262 262 261 261 260 258 258 258 258 257 258 259 258 258 257 256 256 256 256 256 256 257 258 258 259 261 261 260 261 261 262 262 262 263 263 264 265 267 268 269 272 272 272 271 273 275 273 276 278 280 281 282 281 281 282 282 283 283 284 284 285 286 286 288 290 291 291 292 293 294 296 294 297 298 298 297 295
264 263 264 263 262 261 261 261 262 261 261 261 259 257 257 257 256 257 258 258 257 257 256 255 255 255 255 256 256 257 258 259 260 261 260 259 260 261 261 262 262 262 262 263 264 265 266 267 269 271 273 274 274 274 277 276 279 281 282 283 284 283 285 284 284 284 284 285 286 287 287 289 290 291 292 293 294 295 295 296 297 298 297 296 295
264 263 262 262 261 261 260 260 260 260 260 259 258 256 256 256 256 257 258 257 256 255 255 254 254 254 255 256 257 257 258 259 260 260 259 259 259 260 261 261 261 261 262 262 263 264 265 265 267 269 271 273 274 276 278 280 280 282 283 284 285 286 286 285 286 286 286 286 286 287 288 290 291 292 293 294 294 294 293 296 297 297 296 294 294
262 262 262 261 260 259 259 258 259 259 259 258 258 256 255 254 256 257 256 255 255 254 253 253 253 254 255 256 256 257 258 259 259 259 259 259 259 260 259 260 260 261 261 261 261 263 264 265 266 268 269 270 272 273 275 277 280 284 286 286 286 287 288 288 287 287 287 287 288 289 290 290 291 292 293 294 294 294 295 296 296 295 294 294 294
261 261 261 259 258 257 256 256 258 258 258 258 257 256 254 255 256 256 255 254 253 252 252 253 253 254 255 256 256 257 258 259 259 259 259 259 259 259 259 259 260 260 260 260 261 262 264 265 265 266 267 269 271 272 273 275 278 280 280 282 285 287 287 288 288 288 288 289 289 290 290 290 291 291 291 292 292 293 294 295 294 294 294 295 294
260 261 259 258 256 256 255 255 255 257 257 257 255 256 256 256 255 255 254 253 252 252 252 253 253 254 255 255 256 257 258 258 258 259 259 259 259 259 259 259 259 259 259 260 261 263 263 264 264 266 267 268 269 269 270 272 274 274 276 278 279 283 287 287 287 287 287 287 288 288 288 289 290 291 291 292 293 293 293 294 295 295 294 294 294
260 259 258 256 256 255 255 255 255 257 257 256 255 255 255 254 254 254 253 252 251 252 252 252 252 254 254 255 256 259 258 257 257 258 258 259 259 259 259 259 259 259 259 260 262 263 263 263 264 265 265 265 266 267 268 269 271 273 274 276 278 280 282 285 286 287 287 287 287 288 289 288 289 290 291 292 293 293 293 293 294 294 294 293 293
259 258 257 256 255 255 255 255 256 257 256 254 253 254 254 254 254 253 252 251 251 252 252 252 253 253 254 255 256 256 256 257 257 258 259 259 258 259 260 260 261 262 263 263 263 263 264 265 266 265 264 264 265 266 267 273 273 276 275 275 276 278 281 283 285 288 287 287 287 287 287 288 288 288 289 291 292 292 293 293 293 294 294 293 293
258 257 256 255 255 254 254 254 255 256 254 253 253 253 253 254 253 252 252 250 250 251 251 251 252 253 253 254 255 255 256 256 257 257 258 258 262 265 263 261 261 266 268 269 269 265 266 267 267 266 266 265 265 267 273 275 275 276 277 278 279 280 282 283 285 287 287 287 287 287 287 288 288 289 290 290 291 292 292 292 293 292 293 293 292
257 255 254 254 255 254 254 253 254 254 253 252 252 252 252 252 253 252 252 250 250 250 250 251 252 252 254 255 255 255 256 256 257 257 258 257 257 259 264 266 266 267 267 268 269 270 270 271 269 266 268 271 272 273 274 274 275 275 276 277 278 280 281 283 285 285 285 285 286 287 287 288 289 290 290 291 291 291 291 292 292 293 293 292 292
Wind_Speed
5 5 3 2 1 1 1 2 3 5 5 5 4 4 4 6 6 8 7 8 9 9 9 9 10 10 9 9 11 11 12 12 11 12 13 13 15 15 14 12 14 16 16 15 16 16 15 14 13 11 10 10 10 11 10 10 10 10 11 10 11 13 13 10 10 12 15 10 7 9 10 12 13 14 14 14 14 11 8 7 8 10 10 10 9
2 4 3 2 3 4 4 4 5 6 5 4 4 4 4 5 6 6 5 7 7 8 7 7 7 7 9 10 10 10 10 11 13 11 12 13 13 14 14 14 15 14 14 15 16 16 17 15 14 13 11 11 11 11 10 8 9 9 8 11 8 10 12 11 10 8 12 12 10 8 10 7 6 9 12 11 12 13 11 9 7 10 10 9 9
4 5 1 2 3 4 4 4 4 2 3 3 3 4 4 4 4 3 4 5 6 6 7 7 6 7 8 9 10 10 8 8 10 12 12 12 14 14 15 15 16 15 15 14 13 15 16 18 16 14 13 11 11 11 10 11 8 8 9 10 12 7 9 9 10 7 10 13 14 9 8 6 4 4 5 10 11 12 13 13 10 10 9 8 8
5 3 1 2 2 2 4 4 3 3 2 3 3 4 2 3 3 3 4 4 5 6 6 6 7 8 7 8 9 8 10 11 10 9 10 13 14 14 13 13 15 15 15 14 14 15 17 18 18 16 14 11 11 12 12 11 9 7 8 8 9 13 8 10 7 9 8 10 14 11 8 11 8 12 11 7 9 11 15 16 12 12 11 10 7
5 3 1 1 2 2 2 3 3 3 3 3 4 3 3 3 3 3 4 4 4 5 6 6 8 9 9 9 7 9 8 10 12 13 12 11 12 11 13 14 15 16 17 15 15 15 18 17 18 17 14 12 10 11 11 11 10 7 8 9 10 12 14 9 10 7 10 9 11 9 6 8 13 13 14 5 7 9 10 14 15 15 14 12 11
6 4 1 0 1 3 3 3 3 3 3 3 3 4 3 3 3 3 3 3 4 4 6 7 8 9 11 12 14 12 12 10 10 14 16 17 15 14 14 14 12 13 14 16 17 14 17 17 18 18 15 13 11 11 11 11 11 10 9 9 11 11 11 11 12 8 7 10 12 15 14 11 14 8 15 11 3 4 9 10 12 15 15 15 12
1 1 1 1 1 1 3 3 3 3 4 3 4 4 4 3 3 2 2 3 3 3 5 7 8 7 7 8 8 10 13 12 10 9 9 12 13 16 13 14 14 15 16 15 13 15 15 16 17 16 15 13 12 11 12 13 12 11 9 8 11 10 10 12 11 11 8 9 10 13 18 19 9 8 14 5 6 3 8 12 12 12 13 14 14
5 4 3 1 0 1 3 3 3 4 4 4 4 4 4 4 4 4 3 3 3 3 5 5 6 6 7 7 7 8 9 13 14 12 10 10 12 15 14 12 13 13 15 11 10 15 16 16 14 13 14 14 12 12 13 12 11 10 9 11 11 10 9 10 11 9 8 13 7 9 13 20 19 14 18 20 16 15 13 10 10 13 12 13 13
6 5 3 1 1 1 3 3 4 3 3 4 4 5 4 4 5 4 4 3 3 3 4 4 5 6 6 6 8 8 8 10 10 12 13 11 14 13 14 15 12 12 12 14 15 15 15 16 16 14 14 14 12 12 13 13 13 12 11 10 10 9 8 9 10 9 7 11 9 10 10 14 18 16 16 16 14 15 13 16 14 6 9 12 13
4 4 2 2 2 3 2 3 3 3 3 4 5 5 4 4 4 5 5 2 3 3 3 4 4 4 6 7 9 11 10 10 8 10 11 11 15 13 14 13 12 11 11 12 13 13 15 14 15 14 13 14 13 13 15 14 12 12 12 11 9 9 8 9 10 9 7 8 7 9 8 12 16 16 14 16 13 19 18 18 17 17 15 12 13
5 4 3 3 3 2 1 3 4 4 4 5 6 5 5 4 5 6 6 4 2 2 2 4 3 3 4 6 9 11 12 11 11 12 10 11 12 16 13 11 13 13 10 12 12 13 13 13 14 14 13 12 13 15 14 14 13 12 11 10 9 10 9 11 11 10 8 9 9 8 11 12 12 16 14 15 16 14 14 18 18 19 20 16 13
5 3 1 1 2 3 2 4 4 5 5 6 6 5 6 6 5 6 6 4 3 3 3 4 3 3 4 6 8 9 10 10 12 13 12 14 14 14 12 12 11 10 11 13 11 10 10 12 14 14 13 12 13 13 14 14 14 13 10 9 8 10 10 10 10 10 11 9 9 7 9 10 11 14 20 16 17 18 19 18 17 15 12 9 8
5 3 2 0 1 2 3 4 4 5 6 7 7 6 7 6 6 6 8 5 4 3 4 4 4 4 5 6 7 7 8 9 12 13 13 12 13 15 12 13 12 12 14 15 16 16 13 12 14 14 13 12 12 13 15 17 15 14 12 10 10 10 10 11 11 11 10 10 9 8 9 10 12 13 17 21 15 14 16 18 14 15 15 9 5
4 3 2 2 2 2 2 3 4 6 7 8 7 7 7 7 6 5 8 6 5 4 4 5 4 4 4 6 7 7 9 9 10 12 13 12 12 14 15 16 14 18 16 17 16 15 13 14 15 15 15 14 13 14 15 16 16 14 14 12 11 10 10 12 12 11 10 11 9 9 10 10 11 11 16 22 19 15 14 18 17 10 13 11 5
4 3 3 3 2 2 3 4 5 6 7 8 7 7 7 7 6 7 9 7 5 6 6 7 7 5 4 6 7 7 9 9 10 10 12 14 14 15 15 15 16 14 18 17 17 18 17 15 15 17 19 14 13 14 13 14 16 14 14 14 10 7 10 10 10 11 11 11 12 11 10 9 10 11 14 23 19 18 18 15 17 17 9 10 11
4 4 3 3 2 2 3 5 6 6 8 8 7 7 7 7 7 7 8 9 8 8 6 6 7 6 6 8 8 9 8 9 11 10 11 12 16 14 16 17 13 15 14 18 18 17 16 16 16 18 18 14 14 14 13 12 14 14 13 13 12 8 9 10 10 11 12 12 11 10 9 10 11 12 14 22 21 19 18 18 19 19 20 14 11
4 4 3 3 3 4 5 5 6 7 7 7 8 8 8 9 8 9 9 8 8 8 9 8 8 8 9 8 9 9 10 11 12 14 14 15 14 16 14 14 17 15 15 17 16 16 16 16 16 17 16 15 16 14 12 13 14 14 13 13 11 9 9 9 9 10 10 9 8 9 9 10 11 11 15 20 21 18 18 20 20 21 20 19 14
4 3 3 3 4 5 6 6 6 6 6 7 8 7 7 6 7 8 9 9 9 8 8 8 10 10 10 10 9 9 10 12 12 13 14 14 15 15 13 16 14 15 16 15 17 17 16 17 16 15 13 14 15 13 11 13 14 14 14 14 12 9 9 7 7 9 10 8 9 9 9 9 10 11 15 22 20 18 18 20 19 18 19 22 17
3 3 4 5 5 6 6 5 5 5 6 7 7 7 7 6 5 6 9 9 10 8 8 8 8 9 9 10 11 11 10 11 11 12 14 14 17 15 16 16 16 17 15 17 17 16 16 15 15 15 14 15 14 12 12 12 13 13 14 13 12 11 9 8 9 9 10 8 10 11 9 10 9 11 14 21 17 14 17 18 18 19 18 20 20
5 5 5 6 7 6 4 4 5 5 6 7 7 6 7 6 6 7 8 8 9 10 11 11 11 10 12 11 11 10 11 11 12 13 14 17 15 18 16 16 18 15 18 17 17 17 17 16 15 16 16 15 13 12 12 12 12 12 13 13 13 12 11 8 8 8 8 8 10 12 11 10 9 9 13 19 15 14 16 18 17 15 17 17 18
6 6 7 7 5 3 3 3 4 5 6 6 5 7 6 5 6 6 9 11 11 10 10 11 11 12 13 14 14 12 13 12 14 14 15 14 18 16 16 17 13 18 16 18 18 17 17 16 16 16 16 14 13 14 12 12 12 13 12 13 14 14 13 10 7 9 9 10 10 12 12 11 9 10 13 16 15 15 16 16 18 17 14 13 16
8 7 4 3 3 3 3 3 3 5 6 6 6 6 6 6 7 7 8 8 10 11 10 11 11 12 13 14 14 13 13 14 16 15 16 20 15 15 18 15 20 17 17 17 19 17 16 17 16 16 15 15 15 17 16 13 12 13 13 12 11 14 12 11 8 9 9 9 10 11 13 11 10 11 15 18 16 14 16 16 17 19 18 16 15
7 4 2 3 3 3 3 4 4 6 6 6 6 6 7 7 8 7 9 11 9 11 11 11 12 12 13 14 14 14 14 16 17 17 19 15 19 19 13 19 15 17 17 16 17 17 18 17 17 16 16 15 16 17 15 13 12 13 13 14 15 15 14 12 9 9 9 9 11 11 11 10 9 11 14 16 17 14 15 17 19 18 19 17 14
3 2 3 4 3 2 3 4 4 5 5 5 5 6 6 7 8 8 10 11 11 11 11 11 12 14 14 14 15 14 17 17 17 15 16 21 18 15 19 15 17 15 17 17 17 18 18 18 17 17 17 16 17 16 16 15 16 15 13 13 14 15 14 12 10 9 8 9 10 11 11 11 10 12 14 15 15 13 14 16 18 16 16 15 14
3 5 5 3 3 3 4 4 4 5 5 5 6 6 7 8 8 9 10 9 10 11 11 12 12 15 15 14 15 16 18 19 19 18 21 18 16 19 13 19 16 18 18 18 17 17 18 18 17 17 17 16 16 17 17 16 16 14 14 13 14 16 15 12 10 10 9 9 10 10 11 11 10 12 14 14 15 15 14 14 15 14 14 13 13
5 5 4 5 4 3 3 4 5 5 5 5 6 6 7 8 9 8 10 11 10 10 11 12 13 14 15 16 16 17 18 19 19 19 18 19 20 14 19 15 16 21 21 18 18 16 16 18 18 17 17 17 16 17 18 17 16 16 15 14 14 16 16 14 11 10 9 8 9 10 10 10 10 12 14 14 15 15 15 14 16 14 13 13 14
6 6 5 3 3 5 4 5 6 4 4 5 6 7 7 8 9 8 9 10 11 11 11 12 13 14 14 15 15 17 18 18 19 19 19 18 14 18 16 17 18 18 18 18 18 18 17 18 19 17 17 17 17 17 17 16 16 16 16 16 14 15 16 13 11 10 10 9 9 9 9 10 11 11 13 15 16 13 13 16 17 16 15 15 15
5 4 5 6 5 5 6 6 5 4 5 5 5 6 7 8 10 10 9 9 9 11 13 13 13 14 14 15 16 17 17 18 17 19 18 15 18 17 17 17 15 18 18 18 18 18 18 17 17 17 16 16 17 17 16 16 16 16 15 15 14 14 16 14 13 11 10 9 9 9 9 9 11 12 12 13 16 14 10 14 15 15 17 18 16
7 7 6 6 7 8 7 4 4 4 6 7 7 7 8 8 8 9 10 10 10 11 13 14 14 14 15 14 16 16 16 17 17 17 15 19 15 15 18 17 16 16 16 17 18 18 19 19 19 18 18 17 16 16 14 13 14 15 15 15 14 14 14 14 14 12 10 9 8 9 9 9 10 15 19 17 18 17 13 11 14 15 16 18 17
9 8 8 8 9 7 5 3 4 4 5 8 9 9 8 10 11 10 10 10 10 12 12 14 14 14 14 14 15 16 16 17 18 17 19 16 16 19 16 16 17 16 17 17 17 17 17 17 18 18 16 15 14 13 17 25 22 16 15 13 13 14 14 13 13 11 10 9 9 8 9 13 16 18 19 19 18 20 23 15 13 17 18 18 18
9 9 10 8 6 5 3 2 2 4 6 6 7 8 9 10 10 11 11 11 10 12 13 12 14 14 14 15 14 14 16 19 16 17 16 17 17 15 16 17 16 16 16 16 15 16 16 16 16 17 17 15 14 14 23 23 24 26 19 15 14 13 13 13 13 12 11 9 8 8 9 11 13 15 14 17 17 19 26 25 21 21 21 22 20
11 10 7 5 5 5 1 2 5 5 5 6 8 9 10 10 11 12 12 11 12 12 13 14 13 14 14 15 14 16 17 15 16 16 15 15 16 16 16 16 17 17 15 14 15 16 16 15 14 15 16 15 15 19 25 25 27 26 23 16 13 12 11 12 12 12 10 9 9 9 9 9 10 12 12 14 16 17 24 26 24 24 24 26 27
9 7 6 6 4 2 1 2 2 4 6 6 7 9 10 10 12 12 11 12 12 12 13 14 14 14 14 14 16 17 16 16 15 15 16 16 15 15 16 16 17 16 15 16 16 15 15 15 15 16 16 16 16 21 24 26 26 26 26 22 14 14 13 12 12 13 12 11 9 9 10 10 11 15 13 13 13 11 19 25 26 26 28 28 28
7 7 7 4 3 2 1 1 2 3 5 6 6 8 9 9 10 11 11 12 13 14 13 14 14 14 14 15 15 16 16 16 15 15 16 16 15 16 16 15 16 16 16 16 15 15 16 15 14 15 15 15 17 21 25 25 25 26 26 22 14 14 13 13 13 13 13 12 12 10 10 10 10 10 10 13 13 11 12 17 19 18 19 25 28
8 7 6 5 4 2 1 2 2 4 5 6 7 7 9 10 10 12 11 12 12 13 14 14 15 15 15 16 17 15 15 15 16 16 16 16 16 17 17 15 15 15 15 14 14 15 14 14 14 14 14 15 15 25 25 25 25 25 25 22 15 14 13 12 13 14 15 14 13 12 11 11 10 11 11 12 13 11 11 13 18 18 18 19 20
8 8 6 5 4 3 2 2 2 4 5 6 7 8 10 11 10 11 11 11 12 12 13 13 15 15 16 15 15 18 17 18 18 16 15 16 16 16 17 17 16 15 14 13 14 13 14 16 15 14 15 16 16 27 26 25 25 25 26 15 13 13 13 12 13 14 15 14 13 12 11 11 11 12 14 17 16 13 10 13 16 18 17 17 18
6 7 6 4 5 5 3 2 2 4 5 5 6 8 9 11 11 10 10 11 11 12 13 14 15 16 16 16 16 17 17 17 16 16 16 16 17 18 16 14 15 15 14 13 13 12 13 12 15 14 15 15 15 22 25 25 24 25 21 13 13 12 12 12 13 14 15 14 13 12 12 11 11 11 14 18 18 19 11 14 16 18 17 17 17
7 6 6 5 6 5 2 0 2 3 3 5 6 8 9 10 11 11 11 12 12 13 13 14 15 14 14 16 16 16 17 17 16 17 18 16 15 13 14 15 15 15 16 17 15 14 13 12 14 16 14 14 15 19 26 25 25 25 21 14 12 11 12 12 12 14 13 13 14 19 15 12 12 12 16 18 19 15 13 15 16 18 17 18 16
5 7 6 6 5 3 2 0 1 3 6 6 7 8 9 10 11 12 11 12 12 14 14 15 17 16 16 16 15 15 16 17 17 17 16 17 16 14 13 13 14 15 16 16 14 15 14 11 12 14 22 21 16 19 27 26 28 26 20 13 13 12 12 11 11 12 12 12 11 13 19 16 13 13 16 17 19 16 14 16 16 17 19 20 18
6 5 6 6 5 3 1 3 4 5 5 6 6 8 9 10 11 11 12 12 13 14 14 15 15 15 15 14 14 16 16 15 18 18 16 15 14 15 16 17 16 14 15 14 15 13 16 14 12 13 13 13 14 15 18 25 25 27 27 18 12 11 11 11 10 11 11 10 11 10 13 17 18 17 18 20 20 20 16 14 16 17 19 22 17
7 7 7 5 4 4 3 3 3 4 5 6 6 8 9 9 11 11 12 13 14 14 15 15 15 15 15 15 14 14 17 16 15 15 14 14 14 15 17 16 16 15 15 16 17 16 16 14 12 11 12 13 12 15 18 25 25 26 27 24 13 13 13 12 11 11 11 11 10 10 10 12 18 19 22 22 22 22 20 15 18 20 21 20 17
8 8 7 5 4 3 3 3 3 6 5 5 6 8 9 10 10 11 13 13 14 14 14 15 15 15 15 15 15 15 14 13 14 13 15 15 14 15 15 15 14 15 17 18 16 15 14 14 12 11 11 11 14 22 18 22 27 27 28 30 18 15 16 13 14 12 11 11 11 10 9 12 18 20 21 22 23 22 23 16 19 24 22 21 19
6 6 5 5 4 3 3 3 5 5 6 6 5 8 9 9 11 12 12 13 13 14 14 14 15 14 14 15 14 15 15 12 12 13 15 16 15 14 15 14 14 15 15 16 16 15 15 15 14 12 12 11 10 11 21 19 25 27 27 27 29 22 25 19 14 14 13 12 10 10 10 13 16 17 19 21 21 23 21 18 23 21 21 27 22
7 7 6 4 5 3 3 3 5 4 4 5 5 7 9 11 12 11 12 12 12 13 13 14 14 13 14 14 14 14 13 12 13 13 13 15 15 14 14 13 13 14 13 14 14 15 15 15 15 15 13 13 13 13 16 21 20 27 26 27 27 29 27 17 14 12 11 11 10 10 10 14 16 17 19 20 21 21 17 24 22 22 25 24 16
7 6 6 4 5 3 4 3 4 4 4 3 4 6 9 10 11 11 11 13 13 13 13 13 13 13 14 13 13 13 13 11 12 12 13 13 14 14 14 12 12 12 12 13 14 14 15 15 15 15 15 15 14 14 14 18 26 24 25 26 27 28 27 28 17 12 12 11 13 15 14 15 15 16 19 20 19 23 27 25 24 25 23 15 15
7 6 5 4 5 4 4 4 5 3 3 3 4 5 7 10 10 10 11 12 13 14 13 14 13 12 13 13 15 13 11 11 12 11 12 11 13 13 12 12 11 11 12 13 14 14 14 15 15 14 15 15 15 14 13 14 15 18 20 23 24 23 27 25 21 16 16 18 18 17 17 17 16 16 14 11 10 14 24 27 25 25 16 15 15
8 6 5 4 4 5 4 3 3 3 2 4 3 5 5 8 9 10 11 11 12 12 12 12 13 13 12 12 13 12 13 12 11 11 11 11 11 12 12 12 11 12 12 12 13 14 15 15 14 15 15 15 14 13 14 13 13 14 14 15 15 15 15 17 15 13 14 14 16 16 12 14 13 16 16 16 16 17 18 20 17 16 14 15 16
8 7 6 5 5 4 2 1 2 3 3 3 4 5 5 7 8 8 9 10 11 11 11 12 13 12 11 12 12 16 15 11 11 11 11 12 12 12 12 12 12 12 11 10 12 13 14 15 14 13 13 13 13 12 13 14 17 16 16 15 14 14 13 9 7 7 8 11 12 11 13 10 10 10 11 10 11 11 12 14 14 14 14 15 18
9 6 6 5 4 3 0 1 2 2 3 3 4 4 5 8 8 7 8 9 10 11 11 11 11 10 11 11 11 11 11 12 12 11 10 11 12 13 13 11 12 11 11 13 11 11 12 10 10 11 12 12 12 13 13 19 21 25 21 17 15 13 12 10 10 13 9 8 8 9 8 10 10 11 11 11 9 9 10 13 14 14 14 14 15
8 7 6 4 4 3 1 1 2 2 3 3 4 4 5 6 6 7 8 8 10 10 9 9 10 10 10 11 10 11 11 11 11 11 12 12 16 21 16 13 11 21 27 25 23 15 15 13 10 9 10 13 12 15 25 29 27 27 27 27 25 25 23 19 19 20 12 9 8 9 10 10 10 10 11 11 9 9 11 12 13 15 14 13 14
8 8 5 4 3 1 1 0 0 1 3 3 4 4 5 7 7 8 8 8 8 8 8 8 10 9 12 11 10 11 11 11 11 12 11 13 13 15 20 23 25 27 26 27 26 28 28 26 18 14 14 22 24 27 30 30 30 30 29 27 25 22 22 22 22 15 11 10 9 10 10 10 10 11 11 10 9 9 11 12 13 14 13 16 17
Wind_Direction
209 220 242 256 352 306 307 338 343 355 8 354 345 347 5 9 13 15 2 2 8 5 3 356 351 345 348 343 335 334 329 327 326 328 324 321 319 317 319 322 323 321 316 314 310 305 296 290 284 277 271 265 260 262 263 264 276 282 287 283 287 293 296 296 291 299 296 265 242 233 225 215 203 193 192 194 193 181 171 167 165 164 169 175 178
245 264 269 324 348 343 351 10 13 11 339 333 346 334 2 9 24 4 2 6 11 7 355 351 355 350 337 333 330 327 330 329 326 324 319 315 317 322 322 319 314 311 312 312 310 307 304 296 286 278 271 264 260 259 263 260 266 277 280 285 264 277 285 291 293 307 286 268 236 222 228 239 230 206 192 194 190 185 172 165 171 162 175 175 172
227 236 268 313 332 345 7 0 343 288 287 312 325 346 358 9 359 1 4 13 5 1 356 352 344 343 340 326 330 322 318 315 314 316 315 318 322 320 315 314 315 312 310 308 308 307 303 300 292 284 271 264 265 263 258 261 257 271 276 277 289 260 268 277 281 265 279 277 256 219 215 202 256 249 214 195 191 191 176 175 177 176 173 168 168
215 205 230 301 330 323 354 345 306 297 311 326 340 340 340 343 345 5 17 13 5 354 354 345 337 330 327 323 323 322 319 316 310 306 313 319 318 318 312 315 315 312 314 312 306 301 300 296 293 285 276 265 259 263 263 262 261 261 269 268 269 284 269 277 249 270 269 286 250 226 204 202 205 216 200 209 195 196 184 180 174 177 173 168 173
199 208 262 332 343 328 303 286 289 323 317 317 334 328 327 317 335 8 16 11 355 347 350 342 339 340 338 330 326 323 322 326 326 324 323 315 308 311 314 315 313 312 310 305 301 298 295 291 289 283 278 271 263 260 261 261 263 257 262 270 263 267 277 272 270 248 264 260 283 264 210 216 213 204 190 213 196 199 205 182 181 173 171 171 176
175 176 164 200 250 292 320 318 329 311 306 297 293 287 302 307 330 1 11 1 352 351 354 351 350 344 343 342 338 335 326 329 327 324 325 323 322 315 308 309 305 301 299 298 294 288 290 290 288 285 280 275 266 260 260 264 266 267 255 258 265 252 260 271 273 260 247 271 267 273 282 238 209 197 173 205 249 218 185 194 184 180 173 168 172
219 156 201 231 270 314 309 304 292 292 290 296 297 291 300 306 325 348 358 342 335 349 353 350 347 347 339 330 324 322 319 313 312 307 303 307 309 309 307 307 307 307 299 291 286 288 288 288 285 281 279 275 270 264 262 262 264 262 256 252 257 255 245 258 258 275 280 258 259 275 281 280 261 168 199 102 183 260 197 177 188 189 174 170 171
172 175 197 212 256 231 284 282 285 276 290 306 299 303 305 303 322 334 338 340 336 352 349 355 338 332 330 322 313 310 309 304 312 311 306 304 303 304 306 300 301 297 289 290 303 306 302 297 293 292 291 285 277 268 264 261 259 255 251 253 253 243 240 250 267 261 265 274 264 281 289 292 274 232 200 185 178 175 188 182 186 186 177 177 174
170 173 192 199 239 259 252 274 279 289 300 298 302 296 291 305 321 314 317 320 320 337 337 332 332 324 316 310 311 301 299 298 301 303 306 307 302 301 301 301 296 295 302 311 304 297 298 301 306 313 310 304 292 279 266 259 251 253 253 248 238 237 231 244 252 257 241 261 285 272 282 283 283 245 212 201 188 170 181 172 173 193 186 180 178
191 180 177 210 222 235 240 258 282 291 295 298 295 292 297 307 296 292 292 274 282 308 312 319 322 319 311 311 306 307 307 302 297 298 303 307 303 299 304 299 301 298 295 289 291 294 294 297 299 302 306 309 306 296 282 264 252 250 245 233 230 234 236 243 246 248 242 255 245 266 269 283 289 275 225 200 198 186 173 178 173 174 184 190 175
183 186 213 222 230 232 276 307 296 311 311 305 293 290 297 287 269 275 272 260 255 283 303 310 313 288 293 299 302 303 305 303 305 302 300 301 302 304 301 298 298 296 295 292 288 289 288 294 297 296 300 303 306 306 299 285 267 248 232 226 230 231 235 240 244 242 242 243 244 243 253 253 265 278 263 207 189 189 180 180 176 182 181 173 187
178 184 231 259 333 337 354 328 315 302 306 289 282 287 279 268 268 279 289 287 290 297 311 306 292 277 274 288 293 294 297 300 300 300 302 302 301 299 298 296 292 293 294 292 288 286 292 294 297 299 298 301 302 304 302 297 285 264 235 220 221 225 226 232 236 243 243 250 249 248 252 249 253 257 272 239 202 193 181 177 178 174 174 165 165
186 197 216 245 265 280 314 314 311 299 282 281 285 283 277 280 282 293 302 311 309 310 308 301 294 280 283 287 286 287 286 290 292 294 299 299 302 300 299 298 301 301 302 301 295 296 299 300 298 294 295 296 298 302 301 299 289 275 261 230 218 217 221 225 231 232 233 244 253 245 251 253 252 260 269 262 226 195 184 168 178 172 162 147 167
193 190 206 224 233 264 295 283 277 274 274 281 283 279 284 289 295 297 299 307 306 304 295 297 296 289 281 279 283 285 286 286 287 291 298 300 300 296 297 297 298 298 301 299 298 296 293 292 291 294 295 292 296 298 297 295 288 274 258 244 222 219 219 225 229 228 228 240 242 249 247 251 258 264 272 262 221 193 185 174 161 167 155 147 125
193 201 212 217 238 253 269 264 258 263 275 276 272 277 288 299 311 309 306 311 312 309 313 314 310 302 283 273 276 279 284 288 288 287 294 304 301 295 290 293 293 295 295 296 296 295 292 290 296 298 291 291 297 295 293 295 294 282 267 253 235 218 221 226 229 226 233 233 235 241 252 254 259 266 268 268 223 195 180 168 159 149 140 148 155
200 209 240 253 247 266 260 257 258 264 262 267 273 287 303 311 312 307 306 312 315 315 315 311 306 298 291 289 285 281 280 284 288 289 292 296 296 289 291 288 287 289 289 292 291 292 294 294 293 287 288 297 296 290 291 294 294 286 270 257 249 226 229 232 231 229 230 233 238 245 252 259 261 264 263 267 230 194 181 163 166 165 154 158 160
198 211 222 261 282 257 247 253 261 255 264 273 290 306 314 314 313 311 312 314 315 318 319 317 308 303 298 291 286 285 286 287 288 292 295 294 291 293 287 286 288 285 289 291 290 288 288 288 286 284 289 296 292 285 291 298 300 294 280 265 252 237 228 231 238 240 233 231 239 248 253 262 267 266 268 269 235 196 178 170 170 169 164 154 164
203 212 226 236 244 251 257 255 252 268 272 284 299 309 307 303 304 309 312 315 317 319 317 313 312 308 301 297 292 286 287 287 288 291 294 293 292 290 287 289 285 289 288 289 288 287 285 286 283 281 288 289 283 289 296 300 303 304 297 278 258 249 235 232 241 245 246 241 246 249 250 260 266 271 272 274 240 199 177 172 171 170 165 160 164
195 229 236 244 244 243 247 261 281 272 273 285 296 302 302 303 302 302 307 311 312 313 308 304 303 300 299 298 297 295 288 286 285 286 288 287 287 286 291 288 291 289 289 291 289 287 286 283 286 290 287 280 280 288 295 297 299 300 299 287 270 258 243 236 234 236 241 239 245 252 253 260 267 277 278 274 238 207 177 170 173 164 174 165 163
201 219 230 234 241 242 263 291 293 291 298 297 298 303 306 311 313 312 308 309 311 314 314 310 308 302 299 296 291 286 287 287 287 289 289 290 287 294 291 295 291 294 290 289 286 285 286 285 285 285 283 283 285 291 292 292 294 292 293 291 283 267 255 242 242 238 245 245 246 253 252 255 267 279 279 278 239 206 183 172 167 170 171 170 162
203 217 228 235 252 293 304 284 281 285 281 289 296 303 303 306 308 310 310 311 312 309 307 305 308 305 304 302 299 295 290 288 287 286 285 283 288 285 294 291 294 292 292 288 285 284 284 283 280 280 283 285 293 294 292 289 287 288 287 286 285 277 264 255 247 251 248 247 249 254 256 256 261 272 279 280 254 203 188 179 167 167 177 170 167
206 218 229 264 304 291 281 279 274 279 285 293 303 304 315 319 315 313 308 306 308 310 308 306 305 301 300 300 299 298 294 292 291 286 291 295 286 290 290 291 292 291 291 287 286 282 281 281 280 278 280 285 289 290 289 282 279 283 286 289 288 282 270 259 255 260 259 258 255 250 251 256 256 263 274 278 260 213 187 180 173 166 175 177 177
206 221 246 265 255 252 255 263 272 281 287 298 306 311 309 310 313 311 309 306 308 304 306 305 303 302 300 299 299 298 297 293 292 291 289 287 297 290 291 292 286 292 290 290 286 282 280 280 279 279 280 284 284 281 279 283 285 280 280 285 286 283 273 257 251 253 257 264 266 266 265 260 255 260 270 274 264 222 190 180 174 171 173 172 167
214 244 255 245 246 256 256 267 279 278 290 299 299 299 305 308 311 312 310 309 308 307 305 305 303 301 302 302 302 302 300 297 292 289 288 297 291 290 292 282 288 286 291 289 289 284 281 278 278 278 279 278 278 278 283 285 285 281 276 277 280 281 278 263 249 250 250 257 264 271 272 269 263 261 266 272 263 225 197 182 174 171 166 161 153
217 236 243 258 256 253 255 262 271 275 282 292 298 305 310 310 313 313 307 304 305 305 306 306 305 304 305 305 304 305 300 297 293 292 289 287 296 294 288 291 286 288 290 291 288 284 279 276 275 276 276 274 275 277 278 279 275 275 279 280 281 281 277 268 254 250 248 249 259 263 269 269 265 262 264 268 262 221 204 184 175 166 159 150 147
214 234 250 249 248 255 266 267 267 270 276 292 299 307 312 308 305 304 303 306 306 307 305 308 308 308 309 310 308 305 302 299 297 296 293 293 294 294 298 290 288 291 292 288 286 285 282 278 277 275 274 274 274 274 274 274 275 276 276 275 277 279 276 269 260 251 248 245 253 258 264 264 261 259 262 265 256 223 199 184 172 165 151 144 146
212 220 231 257 264 260 259 258 259 265 281 297 309 313 309 304 302 305 307 308 310 310 308 307 309 308 307 307 306 304 301 299 295 292 297 295 292 300 299 298 294 288 289 290 288 285 282 279 276 275 274 272 272 271 271 271 273 272 269 268 268 271 272 269 257 250 246 246 250 260 268 271 267 262 263 264 257 224 206 182 174 163 153 148 149
221 229 231 241 257 259 249 251 262 283 303 306 307 305 307 309 310 311 311 311 311 313 312 313 313 311 308 306 306 302 301 296 294 299 294 293 298 298 298 297 294 291 290 291 289 287 284 281 278 276 275 274 272 271 270 270 269 269 268 266 264 267 271 275 267 253 246 244 251 257 265 271 272 270 265 267 261 221 209 188 175 159 156 152 149
215 223 226 232 241 238 245 259 284 313 322 322 322 324 319 313 308 309 313 314 313 312 312 311 311 308 306 305 304 304 300 297 295 291 294 298 296 298 300 299 296 292 289 288 288 285 284 281 277 275 275 273 270 267 266 265 265 261 258 258 260 263 265 265 263 256 245 244 247 254 260 266 272 277 279 277 277 237 202 194 174 159 160 154 151
215 219 220 225 229 239 253 276 319 327 332 331 327 322 321 316 314 316 314 312 316 310 309 310 307 306 304 302 299 298 300 302 303 303 304 303 302 303 300 295 293 291 288 286 285 283 279 278 280 277 274 272 268 266 263 262 260 259 257 257 257 259 262 265 263 257 248 240 244 252 260 266 274 278 280 281 277 251 202 189 176 163 161 156 156
214 214 218 222 230 244 258 254 316 348 337 329 315 313 314 312 313 316 314 314 316 310 309 307 305 304 304 303 302 303 306 305 303 304 303 305 303 302 300 297 292 289 287 286 283 281 280 278 277 279 277 273 269 266 266 265 263 260 259 257 255 256 259 260 260 254 252 246 245 248 259 270 276 281 286 286 277 259 210 184 180 168 165 162 159
209 211 212 222 234 233 221 14 348 340 335 327 322 319 317 316 318 315 314 315 313 310 308 306 303 305 306 308 309 312 309 308 308 304 305 306 304 303 300 297 294 290 283 276 277 279 281 279 277 277 276 274 270 267 267 269 269 265 259 257 257 257 256 255 258 258 254 249 250 254 258 266 269 276 289 293 284 256 220 185 177 171 170 167 163
202 203 212 214 220 193 100 12 350 338 327 324 321 315 315 318 314 310 311 312 312 310 308 307 308 308 309 312 315 314 311 310 310 310 308 307 304 301 300 297 293 289 286 281 280 281 279 279 273 272 272 272 270 268 267 267 266 263 260 258 259 260 259 260 258 257 256 253 247 249 258 260 269 279 285 285 282 258 221 187 174 174 172 170 170
197 199 203 208 189 177 136 71 350 326 318 313 313 304 304 307 304 308 314 313 313 311 309 307 308 310 314 315 317 316 314 313 311 309 309 307 304 302 300 295 293 290 284 280 277 278 281 277 272 269 269 271 270 272 271 268 265 263 260 259 261 260 260 262 262 258 254 247 240 239 248 260 267 274 278 285 286 252 221 190 174 174 175 177 175
195 195 198 184 182 172 129 58 15 336 323 319 316 316 315 314 318 316 314 310 309 308 309 309 311 314 317 321 319 315 309 311 312 312 309 306 303 302 301 299 295 285 283 280 280 284 280 278 275 271 269 269 270 272 272 270 268 261 256 255 255 255 253 252 253 255 252 245 238 234 237 248 259 266 268 279 285 259 214 196 175 175 177 178 178
194 178 174 171 167 139 80 42 2 327 323 320 321 327 323 315 316 309 308 308 307 307 307 312 315 317 319 319 318 316 318 317 313 312 309 306 304 301 302 301 290 282 274 270 274 272 274 279 275 272 270 267 268 275 273 270 267 264 260 254 252 251 250 249 250 252 249 243 236 229 232 238 247 258 270 274 275 261 216 192 180 175 177 179 183
167 151 156 152 128 102 77 57 324 314 314 324 330 330 320 314 312 309 308 309 312 312 314 317 318 319 320 321 322 319 315 313 313 310 308 307 306 304 296 290 286 281 279 274 271 273 279 272 270 270 268 268 270 274 275 271 268 262 257 254 254 253 250 250 251 250 248 244 233 227 226 233 240 251 259 267 273 263 216 198 185 177 175 178 187
141 136 143 125 106 86 84 102 293 282 330 341 338 326 319 313 312 314 318 320 318 316 318 317 314 316 318 321 320 318 315 312 311 309 307 304 300 291 290 291 289 295 298 296 288 280 274 267 261 269 266 265 266 270 275 272 266 262 258 257 257 258 256 252 253 249 247 241 232 225 223 226 233 239 251 256 265 259 221 198 189 177 178 182 184
150 152 135 118 102 110 168 174 232 337 354 350 337 328 322 319 319 322 324 319 319 319 321 321 321 323 321 319 316 315 313 311 309 307 306 304 304 299 296 304 306 304 302 302 298 293 283 266 260 259 269 270 266 269 270 270 268 262 258 257 256 253 257 254 253 253 244 238 231 225 221 222 225 236 240 249 256 253 223 197 189 180 181 185 184
131 124 118 116 127 132 99 29 16 354 353 344 339 333 328 323 323 323 320 320 321 320 318 319 317 319 319 317 315 313 311 311 308 306 304 303 312 317 316 311 307 306 304 302 302 298 295 284 268 266 266 259 258 262 262 261 260 260 258 257 252 258 262 263 258 256 247 235 229 225 226 221 225 228 236 243 250 247 224 202 186 186 184 189 177
145 126 110 106 93 71 42 18 5 359 359 346 345 339 330 325 321 321 319 319 319 319 321 321 319 316 316 314 314 312 310 308 304 301 305 313 317 315 312 310 310 309 308 307 306 303 298 288 274 276 269 261 248 254 259 259 260 260 258 256 255 257 261 260 261 252 244 242 232 229 228 220 222 228 236 241 241 243 224 206 193 189 192 180 157
120 112 102 94 86 66 33 18 19 7 3 350 350 337 325 327 324 319 319 318 321 323 322 320 317 316 315 315 313 312 307 306 305 308 316 314 313 311 308 311 310 309 310 309 312 312 311 307 306 289 274 259 253 255 253 255 255 257 256 253 252 249 247 255 255 253 246 240 236 232 233 224 225 228 234 237 235 235 222 209 204 195 179 151 161
118 92 88 103 101 79 38 21 4 8 3 349 351 336 330 328 322 317 321 320 321 322 322 319 316 315 318 315 314 313 313 311 312 316 315 314 315 313 312 313 313 313 312 314 315 317 313 313 310 309 306 283 268 263 259 259 261 259 255 252 248 246 247 248 245 245 242 239 237 236 233 230 227 231 234 235 230 226 218 212 207 187 160 164 164
108 115 118 113 102 78 44 27 10 5 353 352 349 340 331 327 318 322 322 321 320 322 320 318 317 318 317 317 316 315 313 313 317 317 315 314 317 318 318 318 318 316 317 319 317 314 314 314 315 314 314 317 316 311 303 292 271 259 259 257 254 253 251 244 240 241 238 236 236 233 230 228 231 235 238 236 230 220 214 210 201 183 170 166 155
119 115 103 86 88 62 45 27 9 360 340 355 355 347 328 321 320 326 323 325 324 323 323 319 320 319 319 317 317 316 315 318 321 318 318 317 316 323 320 320 317 320 320 319 316 314 313 315 316 318 318 317 315 316 312 313 312 301 273 260 258 260 260 254 249 241 233 235 235 234 231 233 239 243 244 241 231 220 210 203 195 183 170 159 162
115 111 107 105 91 72 54 14 349 347 338 354 0 345 327 318 323 326 326 325 324 324 323 323 321 320 319 319 319 319 319 324 323 319 316 316 317 320 320 319 322 319 322 319 315 314 317 321 319 316 315 313 317 319 314 311 317 330 333 324 308 278 260 255 247 242 237 236 239 241 240 241 243 245 245 239 229 220 209 198 189 183 168 168 163
125 125 116 92 86 68 49 13 331 329 347 355 350 336 322 320 324 326 328 325 323 322 321 321 322 320 320 323 324 325 329 328 326 321 319 322 324 321 319 319 321 323 319 312 311 322 324 322 315 317 319 322 321 319 318 318 321 323 320 315 312 307 279 255 249 245 245 246 246 243 240 240 241 243 244 237 225 213 204 194 186 178 175 172 170
122 117 113 109 99 98 64 337 303 311 354 349 338 325 325 322 323 329 326 326 323 326 325 322 321 322 323 326 325 328 329 326 329 327 329 329 329 324 324 326 326 322 309 308 319 323 326 319 315 322 326 322 315 316 320 320 320 319 316 311 306 301 299 298 279 255 244 242 240 242 243 243 245 251 253 250 227 207 192 188 181 176 177 174 175
126 119 114 114 120 107 139 250 287 329 357 333 327 320 326 330 329 330 330 330 325 325 322 319 321 324 325 326 327 328 330 328 325 326 328 332 325 327 327 321 323 313 319 325 319 325 321 306 308 328 326 316 316 317 312 314 314 314 312 308 302 295 292 291 280 281 271 246 233 233 227 228 228 236 243 236 217 194 185 180 175 178 177 174 174
118 114 116 108 118 126 166 259 298 357 345 331 326 322 324 327 328 335 335 331 327 324 324 325 326 326 325 328 332 331 333 329 329 327 331 328 329 334 335 334 332 339 339 339 343 338 339 326 332 334 325 325 321 318 321 326 326 322 316 307 298 290 281 278 278 274 270 263 233 222 219 219 223 226 228 226 207 186 176 175 179 177 174 172 174
126 120 118 125 127 141 161 243 318 352 343 326 321 317 325 332 339 339 337 329 324 324 322 323 327 329 328 332 330 332 332 329 329 329 334 333 331 334 343 350 350 348 346 345 346 349 350 346 351 343 338 342 335 335 338 337 335 332 324 316 305 291 280 272 265 263 254 243 242 224 221 216 222 222 222 219 197 185 174 172 176 178 178 179 181